Regional Weather Roundup
Issued by NWS

Current Version | Previous Version | Text Only | Print | Product List | Glossary Off
Versions: 1 2 3 4 5 6 7 8 9 10 11 12 13 14 15 16 17 18 19 20 21 22 23 24 25 26 27 28 29 30 31 32 33 34 35 36 37 38 39 40 41 42 43 44 45 46 47 48 49 50

000
ASUS43 KLMK 181010
RWRKY
KENTUCKY REGIONAL WEATHER ROUNDUP
NATIONAL WEATHER SERVICE LOUISVILLE KY
600 AM EDT FRI APR 18 2014

NOTE "FAIR" INDICATES FEW OR NO CLOUDS BELOW 12,000 FEET
WITH NO SIGNIFICANT WEATHER AND/OR OBSTRUCTIONS TO VISIBILITY.

KYZ001>023-026-027-061>063-070>075-181100-
WESTERN AND SOUTH CENTRAL KENTUCKY

CITY           SKY/WX    TMP DP  RH WIND       PRES   REMARKS
PADUCAH        PTCLDY    49  43  80 CALM      30.25R
HENDERSON      CLEAR     43  37  81 CALM      30.26S
OWENSBORO      FAIR      47  43  86 E3        30.26F
HOPKINSVILLE   MOCLDY    50  41  71 E1        30.25S
BOWLING GREEN  MOCLDY    47  41  80 CALM      30.27S
GLASGOW        CLOUDY    47  41  78 CALM      30.27S
$$

KYZ024-025-028>034-038-045-046-053-181100-
NORTH CENTRAL KENTUCKY

CITY           SKY/WX    TMP DP  RH WIND       PRES   REMARKS
LOUISVILLE/SDF CLOUDY    48  38  68 SE3       30.27S
LOUISVILLE/LOU CLOUDY    49  40  71 CALM      30.28S
FORT KNOX      MOCLDY    45  37  71 CALM      30.26S HAZE
$$

KYZ035>037-039>044-047>052-055>060-089>105-181100-
NORTHEAST KENTUCKY

CITY           SKY/WX    TMP DP  RH WIND       PRES   REMARKS
LEXINGTON      CLOUDY    50  35  56 S6        30.28S
COVINGTON      CLOUDY    45  37  73 S3        30.27S
FRANKFORT      CLOUDY    44  39  82 CALM      30.27S
$$

KYZ054-064>069-076>088-106>120-181100-
SOUTHEAST KENTUCKY

CITY           SKY/WX    TMP DP  RH WIND       PRES   REMARKS
JACKSON        CLOUDY    52  25  35 SW3       30.30S
LONDON         CLOUDY    48  36  63 CALM      30.30S
SOMERSET       CLOUDY    48  34  57 CALM      30.30S
MIDDLESBORO    CLOUDY    42  37  82 CALM      30.33R
MONTICELLO     CLOUDY    47  42  82 CALM      30.31R
$$




USA.gov is the U.S. government's official web portal to all federal, state and local government web resources and services.